Regional Weather Roundup
Issued by NWS

Home | Current Version | Previous Version | Graphics & Text | Print | Product List | Glossary On
Versions: 1 2 3 4 5 6 7 8 9 10 11 12 13 14 15 16 17 18 19 20 21 22 23 24 25 26 27 28 29 30 31 32 33 34 35 36 37 38 39 40 41 42 43 44 45 46 47 48 49 50
586
ASUS44 KLIX 292201
RWRLA
LOUISIANA WEATHER ROUNDUP
NATIONAL WEATHER SERVICE NEW ORLEANS LA
500 PM CDT TUE JUL 29 2014

NOTE: "FAIR" INDICATES FEW OR NO CLOUDS BELOW 12,000 FEET WITH NO
      SIGNIFICANT WEATHER AND/OR OBSTRUCTIONS TO VISIBILITY.
      SKY/WX - SKY CONDITION AND SIGNIFICANT WEATHER.
      TMP - AIR TEMPERATURE.    DP   - DEWPOINT TEMPERATURE.
      RH  - RELATIVE HUMIDITY.  PRES - PRESSURE.
      HX  - HEAT INDEX.         WCI  - WIND CHILL INDEX.

*  THESE STATIONS ARE NOT NWS OR FAA STATIONS AND ARE NOT UNDER
   NWS QUALITY CONTROL.

LAZ040-048-061>063-065-066-069-292300-
SOUTHEAST LOUISIANA

CITY           SKY/WX    TMP DP  RH WIND       PRES   REMARKS
N.O. AUDUBON     N/A     90  67  46 MISG        N/A
N.O. INTL ARPT PTSUNNY   88  66  48 VRB6      30.02F
N.O. LAKEFRONT MOSUNNY   87  67  51 NW8       30.02F
N.O. DOWNTOWN* FAIR      88  63  42 N3        30.03S
SLIDELL        MOSUNNY   86  62  44 VRB6      30.01S
BATON ROUGE    MOSUNNY   87  63  44 CALM      30.03F
BOOTHVILLE     MOSUNNY   85  66  53 VRB5      30.02S
BELLE CHASSE   PTSUNNY   88  62  41 VRB7      30.01F
BOGALUSA*      FAIR      88  63  43 N3        30.03S
GALLIANO*      NOT AVBL
NEW ROADS*     MOCLDY    86  66  51 CALM      30.04F
GONZALES*      FAIR      87  67  50 N7        30.02F
HAMMOND*       SUNNY     91  59  33 N6        30.04F
HOUMA*         NOT AVBL
PORT FOURCHON* MOCLDY    86  70  58 CALM      30.03S

$$

LAZ041-044-053-054-292300-
SOUTHWEST LOUISIANA

CITY           SKY/WX    TMP DP  RH WIND       PRES   REMARKS
LAKE CHARLES   PTSUNNY   89  70  53 E6        30.03F
LAFAYETTE      MOSUNNY   87  64  46 N12       30.04S
PATTERSON      MOSUNNY   88  72  58 N7        30.06F
SALT POINT       N/A     89  72  56 W5        30.01F HX  96
NEW IBERIA     MOSUNNY   89  67  47 N10       30.03F
CHENAULT AIRPK NOT AVBL

$$

LAZ027-028-292300-
CENTRAL LOUISIANA

CITY           SKY/WX    TMP DP  RH WIND       PRES   REMARKS
FORT POLK      PTSUNNY   86  64  47 NE5       30.06F
ALEXANDRIA INT MOSUNNY   90  63  40 NW7       30.03F
ALEXANDRIA     MOSUNNY   90  65  43 VRB3      30.04F

$$

LAZ001-002-292300-
NORTHWEST LOUISIANA

CITY           SKY/WX    TMP DP  RH WIND       PRES   REMARKS
SHREVEPORT     MOSUNNY   91  63  39 VRB7G16   30.05F
BARKSDALE AFB  SUNNY     90  63  40 VRB2      30.06F
DTN SHREVEPORT SUNNY     90  61  37 NW7       30.06F

$$

LAZ014-016-292300-
NORTHEAST LOUISIANA

CITY           SKY/WX    TMP DP  RH WIND       PRES   REMARKS
MONROE         PTSUNNY   88  69  53 E12G18    30.06S
TALLULAH       SUNNY     87  66  49 N10G18    30.05S

$$




USA.gov is the U.S. government's official web portal to all federal, state and local government web resources and services.